Time,TemperatureF,DewpointF,PressureIn,WindDirection,WindDirectionDegrees,WindSpeedMPH,WindSpeedGustMPH,Humidity,HourlyPrecipIn,Conditions,Clouds,dailyrainin,SoftwareType,DateUTC
2013-03-07 00:02:00,30.0,25.0,30.05,ESE,112,3.0,-999.0,82,-99.99,,,-99.99,,2013-03-07 05:02:00,
2013-03-07 00:12:00,30.0,25.0,30.05,ESE,112,3.0,-999.0,82,-99.99,,,-99.99,,2013-03-07 05:12:00,
2013-03-07 00:22:00,30.0,25.0,30.04,NE,45,1.0,-999.0,82,-99.99,,,-99.99,,2013-03-07 05:22:00,
2013-03-07 00:32:00,30.0,25.0,30.05,NE,56,2.0,-999.0,82,-99.99,,,-99.99,,2013-03-07 05:32:00,
2013-03-07 00:42:00,30.0,25.0,30.05,NE,56,2.0,-999.0,82,-99.99,,,-99.99,,2013-03-07 05:42:00,
2013-03-07 00:52:00,30.0,26.0,30.05,NE,34,2.0,-999.0,85,-99.99,,,-99.99,,2013-03-07 05:52:00,
2013-03-07 01:01:00,29.0,25.0,30.05,North,360,1.0,-999.0,86,-99.99,,,-99.99,,2013-03-07 06:01:00,
2013-03-07 01:11:00,29.0,25.0,30.05,North,360,1.0,-999.0,86,-99.99,,,-99.99,,2013-03-07 06:11:00,
2013-03-07 01:21:00,29.0,26.0,30.03,NNE,18,2.0,-999.0,88,-99.99,,,-99.99,,2013-03-07 06:21:00,
2013-03-07 01:32:00,29.0,26.0,30.06,NNE,31,2.0,-999.0,89,-99.99,,,-99.99,,2013-03-07 06:32:00,
2013-03-07 01:42:00,29.0,26.0,30.06,NE,41,1.0,-999.0,90,-99.99,,,-99.99,,2013-03-07 06:42:00,
2013-03-07 01:52:00,29.0,26.0,30.06,NE,41,1.0,-999.0,90,-99.99,,,-99.99,,2013-03-07 06:52:00,
2013-03-07 02:01:00,29.0,26.0,30.05,NNE,28,2.0,-999.0,90,-99.99,,,-99.99,,2013-03-07 07:01:00,
2013-03-07 02:11:00,29.0,26.0,30.05,NNE,28,2.0,-999.0,90,-99.99,,,-99.99,,2013-03-07 07:11:00,
2013-03-07 02:21:00,29.0,27.0,30.04,North,11,2.0,-999.0,91,-99.99,,,-99.99,,2013-03-07 07:21:00,
2013-03-07 02:32:00,29.0,26.0,30.01,North,6,4.0,-999.0,90,-99.99,,,-99.99,,2013-03-07 07:32:00,
2013-03-07 02:43:00,29.0,26.0,30.01,North,6,4.0,-999.0,90,-99.99,,,-99.99,,2013-03-07 07:43:00,
2013-03-07 02:53:00,29.0,26.0,30.01,NNE,18,2.0,-999.0,89,-99.99,,,-99.99,,2013-03-07 07:53:00,
2013-03-07 03:03:00,29.0,26.0,30.00,NNE,21,4.0,-999.0,89,-99.99,,,-99.99,,2013-03-07 08:03:00,
2013-03-07 03:12:00,29.0,26.0,30.00,NNE,21,4.0,-999.0,89,-99.99,,,-99.99,,2013-03-07 08:12:00,
2013-03-07 03:23:00,29.0,26.0,30.00,NNW,337,5.0,-999.0,89,-99.99,,,-99.99,,2013-03-07 08:23:00,
2013-03-07 03:33:00,29.0,26.0,30.00,North,357,4.0,-999.0,89,-99.99,,,-99.99,,2013-03-07 08:33:00,
2013-03-07 03:44:00,29.0,26.0,30.00,North,357,4.0,-999.0,89,-99.99,,,-99.99,,2013-03-07 08:44:00,
2013-03-07 03:54:00,29.0,26.0,30.00,NNE,14,4.0,-999.0,89,-99.99,,,-99.99,,2013-03-07 08:54:00,
2013-03-07 04:03:00,29.0,26.0,30.00,NNE,27,3.0,-999.0,88,-99.99,,,-99.99,,2013-03-07 09:03:00,
2013-03-07 04:13:00,29.0,26.0,30.00,NNE,27,3.0,-999.0,88,-99.99,,,-99.99,,2013-03-07 09:13:00,
2013-03-07 04:23:00,29.0,26.0,30.00,ENE,68,4.0,-999.0,87,-99.99,,,-99.99,,2013-03-07 09:23:00,
2013-03-07 04:33:00,29.0,25.0,30.00,NNE,27,3.0,-999.0,86,-99.99,,,-99.99,,2013-03-07 09:33:00,
2013-03-07 04:43:00,29.0,25.0,30.00,NNE,27,3.0,-999.0,86,-99.99,,,-99.99,,2013-03-07 09:43:00,
2013-03-07 04:53:00,29.0,25.0,30.00,NNE,30,3.0,-999.0,85,-99.99,,,-99.99,,2013-03-07 09:53:00,
2013-03-07 05:03:00,29.0,25.0,30.00,North,354,3.0,-999.0,84,-99.99,,,-99.99,,2013-03-07 10:03:00,
2013-03-07 05:13:00,29.0,25.0,30.00,North,354,3.0,-999.0,84,-99.99,,,-99.99,,2013-03-07 10:13:00,
2013-03-07 05:23:00,29.0,25.0,30.00,NNE,28,3.0,-999.0,83,-99.99,,,-99.99,,2013-03-07 10:23:00,
2013-03-07 05:33:00,29.0,25.0,30.00,North,360,1.0,-999.0,83,-99.99,,,-99.99,,2013-03-07 10:33:00,
2013-03-07 05:42:00,29.0,25.0,30.00,North,360,1.0,-999.0,83,-99.99,,,-99.99,,2013-03-07 10:42:00,
2013-03-07 05:53:00,29.0,25.0,30.00,North,8,3.0,-999.0,83,-99.99,,,-99.99,,2013-03-07 10:53:00,
2013-03-07 06:03:00,29.0,25.0,30.00,NNE,21,2.0,-999.0,83,-99.99,,,-99.99,,2013-03-07 11:03:00,
2013-03-07 06:12:00,29.0,25.0,30.00,NNE,21,2.0,-999.0,83,-99.99,,,-99.99,,2013-03-07 11:12:00,
2013-03-07 06:23:00,29.0,25.0,30.00,North,359,5.0,-999.0,83,-99.99,,,-99.99,,2013-03-07 11:23:00,
2013-03-07 06:33:00,29.0,24.0,30.00,North,360,5.0,-999.0,82,-99.99,,,-99.99,,2013-03-07 11:33:00,
2013-03-07 06:43:00,29.0,24.0,30.00,North,360,5.0,-999.0,82,-99.99,,,-99.99,,2013-03-07 11:43:00,
2013-03-07 06:54:00,28.0,23.0,30.00,North,10,5.0,-999.0,82,-99.99,,,-99.99,,2013-03-07 11:54:00,
2013-03-07 07:03:00,28.0,23.0,30.00,North,10,5.0,-999.0,82,-99.99,,,-99.99,,2013-03-07 12:03:00,
2013-03-07 07:12:00,28.0,23.0,30.00,North,10,5.0,-999.0,82,-99.99,,,-99.99,,2013-03-07 12:12:00,
2013-03-07 07:23:00,29.0,24.0,30.01,NE,37,4.0,-999.0,81,-99.99,,,-99.99,,2013-03-07 12:23:00,
2013-03-07 07:33:00,29.0,24.0,30.02,NNE,20,3.0,-999.0,81,-99.99,,,-99.99,,2013-03-07 12:33:00,
2013-03-07 07:43:00,29.0,24.0,30.02,NNE,20,3.0,-999.0,81,-99.99,,,-99.99,,2013-03-07 12:43:00,
2013-03-07 07:53:00,29.0,24.0,30.02,North,3,4.0,-999.0,81,-99.99,,,-99.99,,2013-03-07 12:53:00,
2013-03-07 08:03:00,29.0,24.0,30.02,North,8,3.0,-999.0,81,-99.99,,,-99.99,,2013-03-07 13:03:00,
2013-03-07 08:12:00,29.0,24.0,30.02,North,8,3.0,-999.0,81,-99.99,,,-99.99,,2013-03-07 13:12:00,
2013-03-07 08:23:00,29.0,24.0,30.02,NE,48,3.0,-999.0,81,-99.99,,,-99.99,,2013-03-07 13:23:00,
2013-03-07 08:32:00,29.0,24.0,30.02,NNW,328,3.0,-999.0,81,-99.99,,,-99.99,,2013-03-07 13:32:00,
2013-03-07 08:42:00,29.0,24.0,30.02,NNW,328,3.0,-999.0,81,-99.99,,,-99.99,,2013-03-07 13:42:00,
2013-03-07 08:53:00,29.0,25.0,30.03,NE,38,3.0,-999.0,83,-99.99,,,-99.99,,2013-03-07 13:53:00,
2013-03-07 09:02:00,29.0,24.0,30.03,NNE,17,5.0,-999.0,82,-99.99,,,-99.99,,2013-03-07 14:02:00,
2013-03-07 09:12:00,29.0,24.0,30.03,NNE,17,5.0,-999.0,82,-99.99,,,-99.99,,2013-03-07 14:12:00,
2013-03-07 09:23:00,29.0,24.0,30.03,North,8,5.0,-999.0,82,-99.99,,,-99.99,,2013-03-07 14:23:00,
2013-03-07 09:33:00,30.0,25.0,30.03,NNE,30,3.0,-999.0,81,-99.99,,,-99.99,,2013-03-07 14:33:00,
2013-03-07 09:42:00,30.0,25.0,30.03,NNE,30,3.0,-999.0,81,-99.99,,,-99.99,,2013-03-07 14:42:00,
2013-03-07 09:54:00,30.0,24.0,30.02,North,360,3.0,-999.0,79,-99.99,,,-99.99,,2013-03-07 14:54:00,
2013-03-07 10:03:00,30.0,24.0,30.02,NE,38,3.0,-999.0,78,-99.99,,,-99.99,,2013-03-07 15:03:00,
2013-03-07 10:12:00,30.0,24.0,30.02,NE,38,3.0,-999.0,78,-99.99,,,-99.99,,2013-03-07 15:12:00,
2013-03-07 10:23:00,31.0,24.0,30.01,North,357,3.0,-999.0,76,-99.99,,,-99.99,,2013-03-07 15:23:00,
2013-03-07 10:32:00,31.0,24.0,30.01,North,10,2.0,-999.0,76,-99.99,,,-99.99,,2013-03-07 15:32:00,
2013-03-07 10:42:00,31.0,24.0,30.01,North,10,2.0,-999.0,76,-99.99,,,-99.99,,2013-03-07 15:42:00,
2013-03-07 10:53:00,32.0,25.0,30.01,North,360,5.0,-999.0,74,-99.99,,,-99.99,,2013-03-07 15:53:00,
2013-03-07 11:02:00,32.0,25.0,30.01,North,7,7.0,-999.0,75,-99.99,,,-99.99,,2013-03-07 16:02:00,
2013-03-07 11:13:00,32.0,25.0,30.01,North,7,7.0,-999.0,75,-99.99,,,-99.99,,2013-03-07 16:13:00,
2013-03-07 11:23:00,33.0,26.0,30.01,North,349,5.0,-999.0,74,-99.99,,,-99.99,,2013-03-07 16:23:00,
2013-03-07 11:33:00,33.0,26.0,30.01,North,7,2.0,-999.0,74,-99.99,,,-99.99,,2013-03-07 16:33:00,
2013-03-07 11:43:00,33.0,26.0,30.01,North,7,2.0,-999.0,74,-99.99,,,-99.99,,2013-03-07 16:43:00,
2013-03-07 11:53:00,33.0,25.0,30.02,ENE,75,4.0,-999.0,73,-99.99,,,-99.99,,2013-03-07 16:53:00,
2013-03-07 12:02:00,33.0,25.0,30.01,NE,45,3.0,-999.0,73,-99.99,,,-99.99,,2013-03-07 17:02:00,
2013-03-07 12:12:00,33.0,25.0,30.01,NE,45,3.0,-999.0,73,-99.99,,,-99.99,,2013-03-07 17:12:00,
2013-03-07 12:23:00,33.0,26.0,30.01,North,360,4.0,-999.0,74,-99.99,,,-99.99,,2013-03-07 17:23:00,
2013-03-07 12:33:00,33.0,26.0,30.01,North,11,1.0,-999.0,75,-99.99,,,-99.99,,2013-03-07 17:33:00,
2013-03-07 12:43:00,33.0,26.0,30.01,North,11,1.0,-999.0,75,-99.99,,,-99.99,,2013-03-07 17:43:00,
2013-03-07 12:54:00,33.0,27.0,30.01,North,3,5.0,-999.0,77,-99.99,,,-99.99,,2013-03-07 17:54:00,
2013-03-07 13:04:00,32.0,27.0,30.01,NNE,31,3.0,-999.0,80,-99.99,,,-99.99,,2013-03-07 18:04:00,
2013-03-07 13:12:00,32.0,27.0,30.01,NNE,31,3.0,-999.0,80,-99.99,,,-99.99,,2013-03-07 18:12:00,
2013-03-07 13:22:00,32.0,27.0,30.00,North,350,5.0,-999.0,83,-99.99,,,-99.99,,2013-03-07 18:22:00,
2013-03-07 13:32:00,32.0,28.0,30.00,North,360,7.0,-999.0,84,-99.99,,,-99.99,,2013-03-07 18:32:00,
2013-03-07 13:42:00,32.0,28.0,30.00,North,360,7.0,-999.0,84,-99.99,,,-99.99,,2013-03-07 18:42:00,
2013-03-07 13:53:00,32.0,28.0,30.00,NNE,25,5.0,-999.0,86,-99.99,,,-99.99,,2013-03-07 18:53:00,
2013-03-07 14:03:00,32.0,28.0,30.00,NE,35,8.0,-999.0,85,-99.99,,,-99.99,,2013-03-07 19:03:00,
2013-03-07 14:12:00,32.0,28.0,29.99,NNE,20,3.0,-999.0,86,-99.99,,,-99.99,,2013-03-07 19:12:00,
2013-03-07 14:23:00,32.0,28.0,29.99,NNE,20,3.0,-999.0,86,-99.99,,,-99.99,,2013-03-07 19:23:00,
2013-03-07 14:35:00,33.0,29.0,30.00,NE,37,4.0,-999.0,85,-99.99,,,-99.99,,2013-03-07 19:35:00,
2013-03-07 14:43:00,33.0,29.0,30.00,NE,37,4.0,-999.0,85,-99.99,,,-99.99,,2013-03-07 19:43:00,
2013-03-07 14:53:00,33.0,29.0,30.00,North,357,2.0,-999.0,85,-99.99,,,-99.99,,2013-03-07 19:53:00,
2013-03-07 15:02:00,33.0,29.0,30.00,NE,34,0.0,-999.0,84,-99.99,,,-99.99,,2013-03-07 20:02:00,
2013-03-07 15:13:00,33.0,29.0,30.00,NE,34,0.0,-999.0,84,-99.99,,,-99.99,,2013-03-07 20:13:00,
2013-03-07 15:22:00,33.0,30.0,30.00,NNW,340,3.0,-999.0,87,-99.99,,,-99.99,,2013-03-07 20:22:00,
2013-03-07 15:33:00,32.0,29.0,30.00,North,357,6.0,-999.0,90,-99.99,,,-99.99,,2013-03-07 20:33:00,
2013-03-07 15:43:00,32.0,29.0,30.00,North,357,6.0,-999.0,90,-99.99,,,-99.99,,2013-03-07 20:43:00,
2013-03-07 15:54:00,32.0,30.0,30.00,North,360,7.0,-999.0,91,-99.99,,,-99.99,,2013-03-07 20:54:00,
2013-03-07 16:03:00,32.0,30.0,30.00,North,354,5.0,-999.0,91,-99.99,,,-99.99,,2013-03-07 21:03:00,
2013-03-07 16:12:00,32.0,30.0,30.00,North,354,5.0,-999.0,91,-99.99,,,-99.99,,2013-03-07 21:12:00,
2013-03-07 16:23:00,32.0,30.0,30.00,North,357,7.0,-999.0,92,-99.99,,,-99.99,,2013-03-07 21:23:00,
2013-03-07 16:33:00,32.0,30.0,30.00,North,360,7.0,-999.0,92,-99.99,,,-99.99,,2013-03-07 21:33:00,
2013-03-07 16:43:00,32.0,30.0,30.00,North,360,7.0,-999.0,92,-99.99,,,-99.99,,2013-03-07 21:43:00,
2013-03-07 16:53:00,32.0,30.0,30.00,North,352,5.0,-999.0,91,-99.99,,,-99.99,,2013-03-07 21:53:00,
2013-03-07 17:02:00,32.0,30.0,30.00,North,352,5.0,-999.0,91,-99.99,,,-99.99,,2013-03-07 22:02:00,
2013-03-07 17:12:00,32.0,30.0,30.00,North,352,5.0,-999.0,91,-99.99,,,-99.99,,2013-03-07 22:12:00,
2013-03-07 17:22:00,32.0,29.0,30.00,North,8,6.0,-999.0,90,-99.99,,,-99.99,,2013-03-07 22:22:00,
2013-03-07 17:32:00,32.0,29.0,30.00,North,359,7.0,-999.0,90,-99.99,,,-99.99,,2013-03-07 22:32:00,
2013-03-07 17:43:00,32.0,29.0,30.00,North,359,7.0,-999.0,90,-99.99,,,-99.99,,2013-03-07 22:43:00,
2013-03-07 17:54:00,31.0,29.0,30.00,North,354,8.0,-999.0,91,-99.99,,,-99.99,,2013-03-07 22:54:00,
2013-03-07 18:03:00,31.0,28.0,30.01,North,360,6.0,-999.0,90,-99.99,,,-99.99,,2013-03-07 23:03:00,
2013-03-07 18:13:00,31.0,28.0,30.01,North,360,6.0,-999.0,90,-99.99,,,-99.99,,2013-03-07 23:13:00,
2013-03-07 18:22:00,31.0,28.0,30.01,North,360,6.0,-999.0,90,-99.99,,,-99.99,,2013-03-07 23:22:00,
2013-03-07 18:33:00,31.0,28.0,30.01,NNE,14,6.0,-999.0,89,-99.99,,,-99.99,,2013-03-07 23:33:00,
2013-03-07 18:43:00,31.0,28.0,30.01,NNE,14,6.0,-999.0,89,-99.99,,,-99.99,,2013-03-07 23:43:00,
2013-03-07 18:54:00,31.0,28.0,30.01,North,360,7.0,-999.0,90,-99.99,,,-99.99,,2013-03-07 23:54:00,
2013-03-07 19:04:00,31.0,29.0,30.01,NNW,343,9.0,-999.0,91,-99.99,,,-99.99,,2013-03-08 00:04:00,
2013-03-07 19:13:00,31.0,29.0,30.01,NNW,343,9.0,-999.0,91,-99.99,,,-99.99,,2013-03-08 00:13:00,
2013-03-07 19:23:00,31.0,29.0,30.01,NNE,20,10.0,-999.0,92,-99.99,,,-99.99,,2013-03-08 00:23:00,
2013-03-07 19:34:00,30.0,28.0,30.00,NNW,346,10.0,-999.0,93,-99.99,,,-99.99,,2013-03-08 00:34:00,
2013-03-07 19:43:00,30.0,28.0,30.00,NNW,346,10.0,-999.0,93,-99.99,,,-99.99,,2013-03-08 00:43:00,
2013-03-07 19:54:00,30.0,28.0,30.00,NNW,342,10.0,-999.0,93,-99.99,,,-99.99,,2013-03-08 00:54:00,
2013-03-07 20:02:00,30.0,28.0,30.00,North,353,9.0,-999.0,93,-99.99,,,-99.99,,2013-03-08 01:02:00,
2013-03-07 20:11:00,30.0,28.0,30.00,North,353,9.0,-999.0,93,-99.99,,,-99.99,,2013-03-08 01:11:00,
2013-03-07 20:22:00,30.0,28.0,30.00,North,357,9.0,-999.0,93,-99.99,,,-99.99,,2013-03-08 01:22:00,
2013-03-07 20:33:00,30.0,28.0,30.00,North,357,11.0,-999.0,93,-99.99,,,-99.99,,2013-03-08 01:33:00,
2013-03-07 20:42:00,30.0,28.0,30.00,North,357,11.0,-999.0,93,-99.99,,,-99.99,,2013-03-08 01:42:00,
2013-03-07 20:52:00,30.0,28.0,29.99,North,360,11.0,-999.0,92,-99.99,,,-99.99,,2013-03-08 01:52:00,
2013-03-07 21:01:00,30.0,28.0,30.00,NNE,14,8.0,-999.0,92,-99.99,,,-99.99,,2013-03-08 02:01:00,
2013-03-07 21:12:00,30.0,28.0,29.99,North,353,10.0,-999.0,91,-99.99,,,-99.99,,2013-03-08 02:12:00,
2013-03-07 21:22:00,30.0,28.0,29.99,North,353,10.0,-999.0,91,-99.99,,,-99.99,,2013-03-08 02:22:00,
2013-03-07 21:32:00,30.0,28.0,29.98,North,354,10.0,-999.0,91,-99.99,,,-99.99,,2013-03-08 02:32:00,
2013-03-07 21:42:00,30.0,28.0,29.98,North,354,10.0,-999.0,91,-99.99,,,-99.99,,2013-03-08 02:42:00,
2013-03-07 21:53:00,30.0,27.0,29.98,NNE,16,9.0,-999.0,90,-99.99,,,-99.99,,2013-03-08 02:53:00,
2013-03-07 22:02:00,30.0,27.0,29.98,North,352,10.0,-999.0,89,-99.99,,,-99.99,,2013-03-08 03:02:00,
2013-03-07 22:12:00,30.0,27.0,29.98,North,352,10.0,-999.0,89,-99.99,,,-99.99,,2013-03-08 03:12:00,
2013-03-07 22:22:00,30.0,27.0,29.98,North,1,7.0,-999.0,90,-99.99,,,-99.99,,2013-03-08 03:22:00,
2013-03-07 22:32:00,30.0,28.0,29.98,North,352,8.0,-999.0,91,-99.99,,,-99.99,,2013-03-08 03:32:00,
2013-03-07 22:43:00,30.0,28.0,29.98,North,352,8.0,-999.0,91,-99.99,,,-99.99,,2013-03-08 03:43:00,
2013-03-07 22:53:00,29.0,27.0,29.97,NNW,344,8.0,-999.0,91,-99.99,,,-99.99,,2013-03-08 03:53:00,
2013-03-07 23:02:00,29.0,27.0,29.97,North,7,9.0,-999.0,91,-99.99,,,-99.99,,2013-03-08 04:02:00,
2013-03-07 23:11:00,29.0,27.0,29.97,North,7,9.0,-999.0,91,-99.99,,,-99.99,,2013-03-08 04:11:00,
2013-03-07 23:22:00,29.0,27.0,29.97,NNE,13,11.0,-999.0,91,-99.99,,,-99.99,,2013-03-08 04:22:00,
2013-03-07 23:32:00,29.0,27.0,29.97,NW,322,9.0,-999.0,92,-99.99,,,-99.99,,2013-03-08 04:32:00,
2013-03-07 23:42:00,29.0,27.0,29.97,NW,322,9.0,-999.0,92,-99.99,,,-99.99,,2013-03-08 04:42:00,
2013-03-07 23:52:00,29.0,27.0,29.97,North,360,8.0,-999.0,93,-99.99,,,-99.99,,2013-03-08 04:52:00,